When you browse on this site, cookies collect data to enhance your experience and personalize the content and advertising you see.
Visit our Privacy Policy to learn more. By continuing to use the site, you agree to this use of cookies and data.

Hourly Weather Kandahar

Today, 13 August, Thursday

Time Temperature Precipitation Wind Pressure Humidity
00:00 +32°C° 0 mm 2 mps 667 mmHg 13%
01:00 +31°C° 0 mm 2 mps 667 mmHg 14%
02:00 +30°C° 0 mm 1 mps 667 mmHg 15%
03:00 +29°C° 0 mm 1 mps 667 mmHg 16%
04:00 +28°C° 0 mm 1 mps 667 mmHg 18%
05:00 +30°C° 0 mm 1 mps 667 mmHg 17%
06:00 +31°C° 0 mm 1 mps 668 mmHg 16%
07:00 +31°C° 0 mm 0 mps 669 mmHg 15%
08:00 +34°C° 0 mm 1 mps 669 mmHg 13%
09:00 +37°C° 0 mm 2 mps 669 mmHg 11%
10:00 +39°C° 0 mm 3 mps 669 mmHg 8%
11:00 +42°C° 0 mm 4 mps 669 mmHg 7%
12:00 +43°C° 0 mm 5 mps 669 mmHg 6%
13:00 +45°C° 0 mm 5 mps 669 mmHg 5%
14:00 +46°C° 0 mm 6 mps 668 mmHg 5%
15:00 +46°C° 0 mm 6 mps 667 mmHg 4%
16:00 +46°C° 0 mm 7 mps 667 mmHg 4%
17:00 +44°C° 0 mm 6 mps 667 mmHg 5%
18:00 +41°C° 0 mm 5 mps 667 mmHg 6%
19:00 +38°C° 0 mm 4 mps 667 mmHg 6%
20:00 +37°C° 0 mm 4 mps 666 mmHg 7%
21:00 +35°C° 0 mm 3 mps 666 mmHg 8%
22:00 +34°C° 0 mm 2 mps 666 mmHg 9%
23:00 +32°C° 0 mm 2 mps 666 mmHg 9%

Tomorrow, 14 August, Friday

Time Temperature Precipitation Wind Pressure Humidity
00:00 +31°C° 0 mm 1 mps 666 mmHg 10%
01:00 +30°C° 0 mm 1 mps 666 mmHg 11%
02:00 +29°C° 0 mm 1 mps 666 mmHg 11%
03:00 +29°C° 0 mm 1 mps 666 mmHg 12%
04:00 +28°C° 0 mm 1 mps 666 mmHg 12%
05:00 +29°C° 0 mm 1 mps 667 mmHg 11%
06:00 +31°C° 0 mm 1 mps 667 mmHg 10%
07:00 +33°C° 0 mm 1 mps 668 mmHg 9%
08:00 +33°C° 0 mm 0 mps 668 mmHg 8%
09:00 +35°C° 0 mm 0 mps 668 mmHg 7%
10:00 +37°C° 0 mm 0 mps 668 mmHg 6%
11:00 +41°C° 0 mm 1 mps 668 mmHg 5%
12:00 +42°C° 0 mm 2 mps 668 mmHg 5%
13:00 +45°C° 0 mm 3 mps 668 mmHg 4%
14:00 +45°C° 0 mm 3 mps 667 mmHg 4%
15:00 +45°C° 0 mm 4 mps 667 mmHg 4%
16:00 +47°C° 0 mm 4 mps 666 mmHg 4%
17:00 +44°C° 0 mm 4 mps 666 mmHg 4%
18:00 +42°C° 0 mm 4 mps 666 mmHg 5%
19:00 +40°C° 0 mm 4 mps 666 mmHg 6%
20:00 +38°C° 0 mm 4 mps 666 mmHg 7%
21:00 +36°C° 0 mm 3 mps 666 mmHg 8%
22:00 +35°C° 0 mm 2 mps 666 mmHg 9%
23:00 +34°C° 0 mm 2 mps 666 mmHg 10%

Day after tomorrow, 15 August, Saturday

Time Temperature Precipitation Wind Pressure Humidity
00:00 +34°C° 0 mm 2 mps 666 mmHg 10%
01:00 +32°C° 0 mm 2 mps 665 mmHg 11%
02:00 +31°C° 0 mm 1 mps 665 mmHg 12%
03:00 +30°C° 0 mm 1 mps 665 mmHg 12%
04:00 +29°C° 0 mm 1 mps 665 mmHg 13%
05:00 +31°C° 0 mm 1 mps 666 mmHg 12%
06:00 +32°C° 0 mm 1 mps 666 mmHg 11%
07:00 +34°C° 0 mm 1 mps 667 mmHg 10%
08:00 +37°C° 0 mm 2 mps 667 mmHg 9%
09:00 +39°C° 0 mm 2 mps 668 mmHg 8%
10:00 +42°C° 0 mm 3 mps 668 mmHg 7%
11:00 +43°C° 0 mm 3 mps 668 mmHg 6%
12:00 +44°C° 0 mm 4 mps 668 mmHg 6%
13:00 +47°C° 0 mm 5 mps 668 mmHg 5%
14:00 +47°C° 0 mm 5 mps 667 mmHg 5%
15:00 +47°C° 0 mm 5 mps 667 mmHg 5%
16:00 +47°C° 0 mm 6 mps 667 mmHg 5%
17:00 +45°C° 0 mm 5 mps 666 mmHg 6%
18:00 +43°C° 0 mm 5 mps 666 mmHg 6%
19:00 +41°C° 0 mm 4 mps 666 mmHg 7%
20:00 +38°C° 0 mm 3 mps 666 mmHg 8%
21:00 +37°C° 0 mm 2 mps 666 mmHg 9%
22:00 +35°C° 0 mm 2 mps 666 mmHg 10%
23:00 +35°C° 0 mm 2 mps 666 mmHg 11%

16 August, Sunday

Time Temperature Precipitation Wind Pressure Humidity
00:00 +34°C° 0 mm 2 mps 666 mmHg 11%
01:00 +32°C° 0 mm 2 mps 666 mmHg 11%
02:00 +31°C° 0 mm 1 mps 666 mmHg 12%
03:00 +30°C° 0 mm 1 mps 665 mmHg 13%
04:00 +29°C° 0 mm 1 mps 665 mmHg 14%
05:00 +30°C° 0 mm 1 mps 666 mmHg 13%
06:00 +32°C° 0 mm 1 mps 667 mmHg 11%
07:00 +34°C° 0 mm 1 mps 667 mmHg 10%
08:00 +36°C° 0 mm 1 mps 668 mmHg 9%
09:00 +39°C° 0 mm 1 mps 668 mmHg 8%
10:00 +41°C° 0 mm 2 mps 668 mmHg 7%
11:00 +43°C° 0 mm 3 mps 668 mmHg 6%
12:00 +45°C° 0 mm 3 mps 668 mmHg 6%
13:00 +47°C° 0 mm 4 mps 668 mmHg 5%
14:00 +47°C° 0 mm 4 mps 668 mmHg 5%
15:00 +47°C° 0 mm 5 mps 667 mmHg 5%
16:00 +48°C° 0 mm 5 mps 667 mmHg 5%
17:00 +46°C° 0 mm 5 mps 667 mmHg 6%
18:00 +43°C° 0 mm 5 mps 666 mmHg 7%
19:00 +41°C° 0 mm 4 mps 666 mmHg 8%
20:00 +38°C° 0 mm 4 mps 666 mmHg 9%
21:00 +37°C° 0 mm 3 mps 666 mmHg 9%
22:00 +36°C° 0 mm 2 mps 667 mmHg 10%
23:00 +35°C° 0 mm 2 mps 666 mmHg 11%

17 August, Monday

Time Temperature Precipitation Wind Pressure Humidity
00:00 +34°C° 0 mm 2 mps 666 mmHg 11%
01:00 +32°C° 0 mm 1 mps 665 mmHg 11%
02:00 +31°C° 0 mm 1 mps 665 mmHg 12%
03:00 +30°C° 0 mm 1 mps 665 mmHg 12%
04:00 +29°C° 0 mm 1 mps 665 mmHg 13%
05:00 +31°C° 0 mm 1 mps 666 mmHg 12%
06:00 +32°C° 0 mm 1 mps 667 mmHg 10%
07:00 +34°C° 0 mm 1 mps 667 mmHg 9%
08:00 +36°C° 0 mm 1 mps 668 mmHg 8%
09:00 +38°C° 0 mm 2 mps 668 mmHg 7%
10:00 +40°C° 0 mm 2 mps 668 mmHg 6%
11:00 +42°C° 0 mm 3 mps 668 mmHg 6%
12:00 +44°C° 0 mm 3 mps 668 mmHg 5%
13:00 +45°C° 0 mm 3 mps 667 mmHg 5%
14:00 +47°C° 0 mm 4 mps 667 mmHg 5%
15:00 +47°C° 0 mm 5 mps 667 mmHg 5%
16:00 +47°C° 0 mm 6 mps 666 mmHg 5%
17:00 +45°C° 0 mm 5 mps 666 mmHg 6%
18:00 +42°C° 0 mm 5 mps 666 mmHg 7%
19:00 +40°C° 0 mm 4 mps 666 mmHg 9%
20:00 +38°C° 0 mm 3 mps 666 mmHg 10%
21:00 +36°C° 0 mm 3 mps 666 mmHg 11%
22:00 +35°C° 0 mm 2 mps 666 mmHg 12%
23:00 +34°C° 0 mm 2 mps 666 mmHg 12%

18 August, Tuesday

Time Temperature Precipitation Wind Pressure Humidity
00:00 +32°C° 0 mm 2 mps 665 mmHg 12%
01:00 +32°C° 0 mm 2 mps 665 mmHg 13%
02:00 +31°C° 0 mm 2 mps 665 mmHg 14%
03:00 +30°C° 0 mm 1 mps 665 mmHg 14%
04:00 +29°C° 0 mm 1 mps 665 mmHg 15%
05:00 +30°C° 0 mm 1 mps 666 mmHg 14%
06:00 +31°C° 0 mm 1 mps 666 mmHg 13%
07:00 +34°C° 0 mm 2 mps 667 mmHg 12%
08:00 +35°C° 0 mm 2 mps 667 mmHg 12%
09:00 +37°C° 0 mm 2 mps 668 mmHg 11%
10:00 +38°C° 0 mm 2 mps 668 mmHg 10%
11:00 +40°C° 0 mm 3 mps 668 mmHg 9%
12:00 +42°C° 0 mm 4 mps 667 mmHg 9%
13:00 +44°C° 0 mm 4 mps 667 mmHg 8%
14:00 +45°C° 0 mm 5 mps 667 mmHg 8%
15:00 +46°C° 0 mm 6 mps 666 mmHg 8%
16:00 +46°C° 0 mm 7 mps 666 mmHg 8%
17:00 +44°C° 0 mm 6 mps 666 mmHg 9%
18:00 +41°C° 0 mm 5 mps 665 mmHg 10%
19:00 +38°C° 0 mm 4 mps 665 mmHg 11%
20:00 +37°C° 0 mm 3 mps 665 mmHg 11%
21:00 +36°C° 0 mm 3 mps 665 mmHg 12%
22:00 +35°C° 0 mm 3 mps 665 mmHg 13%
23:00 +34°C° 0 mm 3 mps 665 mmHg 14%
Show more